Saguache, CO

7:51 PM MDT on March 30, 2017 (GMT -0600)
Saguache

Weather History for K04V - October, 2013

Change the Weather History Date:

Thursday, October 17, 2013

  Actual Average (KALS) Record (KALS)
Temperature  
Mean Temperature 36 °F -  
Max Temperature 50 °F 60 °F 76 °F (2016)
Min Temperature 23 °F 23 °F 8 °F (1999)
Degree Days  
Heating Degree Days 28    
Moisture  
Dew Point 18 °F    
Average Humidity 51    
Maximum Humidity 74    
Minimum Humidity 30    
Precipitation  
Precipitation 0.00 in - - ()
Sea Level Pressure  
Sea Level Pressure 30.13 in    
Wind  
Wind Speed 10 mph (WNW)    
Max Wind Speed 16 mph    
Max Gust Speed 20 mph    
Visibility 10 miles    
Events      
Averages and records for this station are not official NWS values.
T = Trace of Precipitation, MM = Missing Value Source: NWS Daily Summary

Daily Weather History Graph

Daily Weather History Graph

Search for Another Location

Airport or City:

Trip Planner

Search our weather history database for the weather conditions in past years. The results will help you decide how hot, cold, wet, or windy it might be!

Date:

Astronomy

Oct. 17, 2013 Rise Set
Actual Time 7:15 AM MDT 6:23 PM MDT
Civil Twilight 6:48 AM MDT 6:50 PM MDT
Nautical Twilight 6:18 AM MDT 7:20 PM MDT
Astronomical Twilight 5:47 AM MDT 7:51 PM MDT
Moon 5:39 PM MDT (10/17) 5:51 AM MDT (10/17)
Length of Visible Light 12h 01m
Length of Day
11h 08m
Waxing Gibbous, 98% of the Moon is Illuminated
Oct 17
Waxing Gibbous
Oct 18
Full
Oct 26
Last Quarter
Nov 3
New
Nov 9
First Quarter

Hourly Weather History & Observations

Time (MDT) Temp. Windchill Dew Point Humidity Pressure Visibility Wind Dir Wind Speed Gust Speed Precip Events Conditions
12:12 AM 32.0 °F 21.6 °F 17.6 °F 55% 30.19 in 10.0 mi NNW 15.0 mph 19.6 mph N/A   Clear
12:32 AM 32.0 °F 24.2 °F 17.6 °F 55% 30.19 in 10.0 mi NNW 9.2 mph - N/A   Clear
12:51 AM 30.2 °F 24.3 °F 17.6 °F 60% 30.19 in 10.0 mi West 5.8 mph - N/A   Clear
1:12 AM 28.4 °F 20.4 °F 17.6 °F 64% 30.19 in 10.0 mi NW 8.1 mph - N/A   Clear
1:32 AM 28.4 °F 18.5 °F 19.4 °F 69% 30.19 in 10.0 mi NW 11.5 mph - N/A   Clear
1:52 AM 30.2 °F 20.8 °F 19.4 °F 64% 30.19 in 10.0 mi NNW 11.5 mph - N/A   Clear
2:12 AM 30.2 °F 19.8 °F 19.4 °F 64% 30.19 in 10.0 mi WNW 13.8 mph - N/A   Clear
2:32 AM 28.4 °F 18.5 °F 19.4 °F 69% 30.19 in 10.0 mi NW 11.5 mph - N/A   Clear
2:52 AM 28.4 °F 19.1 °F 19.4 °F 69% 30.19 in 10.0 mi NW 10.4 mph - N/A   Clear
3:12 AM 28.4 °F 18.0 °F 19.4 °F 69% 30.19 in 10.0 mi NW 12.7 mph - N/A   Clear
3:32 AM 28.4 °F 17.0 °F 17.6 °F 64% 30.19 in 10.0 mi NW 15.0 mph - N/A   Clear
3:52 AM 28.4 °F 16.6 °F 15.8 °F 59% 30.19 in 10.0 mi NW 16.1 mph - N/A   Clear
4:12 AM 28.4 °F 18.0 °F 17.6 °F 64% 30.18 in 10.0 mi NW 12.7 mph - N/A   Clear
4:32 AM 26.6 °F 15.2 °F 17.6 °F 69% 30.19 in 10.0 mi NW 13.8 mph - N/A   Clear
4:52 AM 26.6 °F 15.7 °F 15.8 °F 64% 30.19 in 10.0 mi NW 12.7 mph - N/A   Clear
5:12 AM 26.6 °F 15.2 °F 17.6 °F 69% 30.19 in 10.0 mi NW 13.8 mph - N/A   Clear
5:32 AM 26.6 °F 15.7 °F 17.6 °F 69% 30.17 in 10.0 mi NW 12.7 mph - N/A   Clear
5:52 AM 24.8 °F 13.4 °F 15.8 °F 69% 30.18 in 10.0 mi NW 12.7 mph - N/A   Clear
6:12 AM 24.8 °F 14.6 °F 15.8 °F 69% 30.18 in 10.0 mi NW 10.4 mph - N/A   Clear
6:32 AM 24.8 °F 12.9 °F 15.8 °F 69% 30.18 in 10.0 mi NW 13.8 mph - N/A   Clear
6:52 AM 24.8 °F 14.0 °F 15.8 °F 69% 30.17 in 10.0 mi NW 11.5 mph - N/A   Clear
7:12 AM 24.8 °F 14.6 °F 15.8 °F 69% 30.18 in 10.0 mi NNW 10.4 mph - N/A   Clear
7:32 AM 23.0 °F - 15.8 °F 74% 30.19 in 10.0 mi Calm Calm - N/A   Clear
7:51 AM 24.8 °F - 15.8 °F 69% 30.20 in 10.0 mi Calm Calm - N/A   Clear
8:12 AM 26.6 °F 22.6 °F 15.8 °F 64% 30.21 in 10.0 mi NNE 3.5 mph - N/A   Clear
8:32 AM 30.2 °F 24.3 °F 17.6 °F 60% 30.21 in 10.0 mi NW 5.8 mph - N/A   Clear
8:52 AM 32.0 °F 25.6 °F 19.4 °F 60% 30.21 in 10.0 mi NW 6.9 mph - N/A   Clear
9:12 AM 32.0 °F 24.8 °F 17.6 °F 55% 30.22 in 10.0 mi WNW 8.1 mph - N/A   Clear
9:31 AM 33.8 °F 27.7 °F 15.8 °F 48% 30.21 in 10.0 mi WNW 6.9 mph - N/A   Clear
9:52 AM 35.6 °F - 15.8 °F 44% 30.21 in 10.0 mi Calm Calm - N/A   Clear
10:12 AM 37.4 °F - 15.8 °F 41% 30.19 in 10.0 mi Calm Calm - N/A   Clear
10:32 AM 37.4 °F - 17.6 °F 45% 30.19 in 10.0 mi Calm Calm - N/A   Clear
10:52 AM 39.2 °F 37.0 °F 19.4 °F 45% 30.19 in 10.0 mi SSE 3.5 mph - N/A   Clear
11:12 AM 39.2 °F - 19.4 °F 45% 30.17 in 10.0 mi Calm Calm - N/A   Clear
11:32 AM 41.0 °F 36.4 °F 19.4 °F 42% 30.17 in 10.0 mi SSE 6.9 mph - N/A   Clear
11:52 AM 41.0 °F 35.2 °F 21.2 °F 45% 30.16 in 10.0 mi SSE 9.2 mph - N/A   Clear
12:12 PM 42.8 °F 37.0 °F 21.2 °F 42% 30.15 in 10.0 mi SSE 10.4 mph - N/A   Clear
12:32 PM 44.6 °F 39.7 °F 21.2 °F 39% 30.13 in 10.0 mi South 9.2 mph - N/A   Clear
12:51 PM 44.6 °F 40.2 °F 21.2 °F 39% 30.12 in 10.0 mi South 8.1 mph - N/A   Clear
1:12 PM 44.6 °F 39.7 °F 21.2 °F 39% 30.10 in 10.0 mi SSW 9.2 mph - N/A   Clear
1:32 PM 44.6 °F 42.2 °F 21.2 °F 39% 30.10 in 10.0 mi SSE 4.6 mph - N/A   Clear
1:52 PM 44.6 °F 40.7 °F 21.2 °F 39% 30.09 in 10.0 mi South 6.9 mph - N/A   Clear
2:12 PM 46.4 °F 42.4 °F 21.2 °F 37% 30.08 in 10.0 mi SSW 8.1 mph - N/A   Clear
2:32 PM 46.4 °F 40.7 °F 21.2 °F 37% 30.07 in 10.0 mi South 12.7 mph 17.3 mph N/A   Clear
2:52 PM 46.4 °F 41.9 °F 21.2 °F 37% 30.06 in 10.0 mi SSW 9.2 mph - N/A   Clear
3:12 PM 48.2 °F - 21.2 °F 34% 30.05 in 10.0 mi SSW 11.5 mph 16.1 mph N/A   Clear
3:32 PM 48.2 °F - 21.2 °F 34% 30.04 in 10.0 mi South 9.2 mph - N/A   Clear
3:52 PM 48.2 °F - 21.2 °F 34% 30.03 in 10.0 mi South 9.2 mph - N/A   Clear
4:12 PM 50.0 °F - 19.4 °F 30% 30.03 in 10.0 mi South 10.4 mph 16.1 mph N/A   Clear
4:32 PM 48.2 °F - 19.4 °F 32% 30.02 in 10.0 mi South 12.7 mph - N/A   Clear
4:51 PM 48.2 °F - 19.4 °F 32% 30.03 in 10.0 mi South 9.2 mph - N/A   Clear
5:11 PM 48.2 °F - 19.4 °F 32% 30.03 in 10.0 mi South 9.2 mph - N/A   Clear
5:32 PM 48.2 °F - 19.4 °F 32% 30.03 in 10.0 mi SE 8.1 mph - N/A   Clear
5:52 PM 46.4 °F 44.3 °F 19.4 °F 34% 30.03 in 10.0 mi South 4.6 mph - N/A   Clear
6:12 PM 44.6 °F 40.7 °F 19.4 °F 37% 30.03 in 10.0 mi SSE 6.9 mph - N/A   Clear
6:31 PM 44.6 °F 42.2 °F 15.8 °F 31% 30.04 in 10.0 mi ENE 4.6 mph - N/A   Clear
6:52 PM 41.0 °F 38.0 °F 19.4 °F 42% 30.04 in 10.0 mi NW 4.6 mph - N/A   Clear
7:12 PM 39.2 °F 32.5 °F 15.8 °F 39% 30.04 in 10.0 mi NW 10.4 mph - N/A   Clear
7:31 PM 39.2 °F 32.5 °F 14.0 °F 36% 30.05 in 10.0 mi NW 10.4 mph - N/A   Clear
7:52 PM 37.4 °F 30.3 °F 14.0 °F 38% 30.05 in 10.0 mi NW 10.4 mph - N/A   Clear
8:12 PM 35.6 °F 28.0 °F 14.0 °F 41% 30.06 in 10.0 mi NW 10.4 mph - N/A   Clear
8:32 PM 37.4 °F 30.3 °F 15.8 °F 41% 30.06 in 10.0 mi NW 10.4 mph - N/A   Clear
8:52 PM 35.6 °F 28.6 °F 15.8 °F 44% 30.06 in 10.0 mi NNW 9.2 mph - N/A   Clear
9:12 PM 35.6 °F 29.9 °F 15.8 °F 44% 30.07 in 10.0 mi NNW 6.9 mph - N/A   Clear
9:32 PM 32.0 °F 25.6 °F 17.6 °F 55% 30.07 in 10.0 mi NNW 6.9 mph - N/A   Clear
9:52 PM 33.8 °F 26.4 °F 17.6 °F 52% 30.07 in 10.0 mi NW 9.2 mph - N/A   Clear
10:12 PM 33.8 °F 27.7 °F 17.6 °F 52% 30.08 in 10.0 mi NNW 6.9 mph - N/A   Clear
10:32 PM 33.8 °F 28.6 °F 17.6 °F 52% 30.08 in 10.0 mi NNW 5.8 mph - N/A   Clear
10:51 PM 33.8 °F 29.6 °F 17.6 °F 52% 30.07 in 10.0 mi NW 4.6 mph - N/A   Clear
11:12 PM 32.0 °F 25.6 °F 17.6 °F 55% 30.07 in 10.0 mi NW 6.9 mph - N/A   Clear
11:32 PM 30.2 °F 21.3 °F 17.6 °F 60% 30.06 in 10.0 mi NW 10.4 mph - N/A   Clear
11:52 PM 30.2 °F 20.8 °F 17.6 °F 60% 30.06 in 10.0 mi NW 11.5 mph - N/A   Clear